Location: Arbon
(43.0005°N, 0.7472°E)
Time: 21:33:27
(UTC+00:00)

Explorer 7 - Pass Details

Date: 27 November 2020
Orbit: 484 x 678 km, 50.3° (Epoch: 25 January)

Event Time Altitude Azimuth Distance (km) Brightness Sun altitude
Rises 06:06:14 0° 294° (WNW) 2,778 - -10.5°
Reaches altitude 10° 06:08:45 10° 305° (NW) 1,842 - -10.1°
Exits shadow 06:09:13 12° 308° (NW) 1,680 8.7 -10.0°
Maximum altitude 06:12:31 31° 9° (N) 944 7.9 -9.5°
Drops below altitude 10° 06:16:05 10° 74° (ENE) 1,743 10.2 -8.8°
Sets 06:18:24 0° 84° (E) 2,602 11.5 -8.5°
